[[{"header":{"parameterUnit":"m.s-1","parameterCategory":1,"la1":30.2991,"la2":30.254,"lo1":-89.0895,"lo2":-89.0444,"dx":0.0017,"dy":0.0017,"nx":28,"ny":28,"refTime":"2022-12-23T15:00:00:Z","depth":0,"parameterNumber":2,"parameterNumberName":"U-component_of_WINDS"},"data":[0,0,0,0,0,0,0,0,0,0,0,0,0,0,0,0,0,0,0,0,0,0,0,0,0,0,0,0,0,0,0,0,0,0,0,0,0,0,0,0,0,0,0,0,0,0,0,0,0,0,0,0,0,0,0,0,0,0,0.5793,0.5793,0,0.5725,0.5724,0.5724,0.5719,0.572,0.5721,0.5722,0.5648,0.5645,0.5643,0,0,0,0,0,0,0,0,0,0,0,0,0,0.5918,0.5915,0.5794,0.5793,0.5792,0.5725,0.5724,0.5723,0.5719,0.572,0.5721,0.5722,0.5649,0.5646,0.5642,0,0,0,0,0,0,0,0,0,0,0,0,0,0.5858,0.5915,0.5794,0.5782,0.578,0.5725,0.5724,0.5723,0.5719,0.572,0.5721,0.5723,0.565,0.5646,0.5642,0.5593,0,0,0.563,0.5628,0,0,0,0,0,0,0,0,0.5861,0.5853,0.5784,0.5783,0.5781,0.5732,0.5741,0.5679,0.5719,0.5742,0.5722,0.5723,0.5675,0.5669,0.5653,0.559,0.5587,0.5629,0.5627,0.5625,0.5624,0,0,0,0,0,0,0,0.5865,0.5856,0.5766,0.5783,0.5781,0.5779,0.5772,0.5729,0.5702,0.574,0.574,0.5732,0.5674,0.5657,0.5651,0.5585,0.5629,0.5626,0.5623,0.5622,0.5478,0.5477,0,0,0,0,0,0,0.5872,0.586,0.5769,0.5764,0.5825,0.5776,0.5768,0.5746,0.5703,0.5698,0.5731,0.5732,0.5663,0.5656,0.5649,0.5588,0.5625,0.5621,0.5619,0.548,0.5478,0.5477,0,0,0,0,0,0,0.5875,0.5864,0.5771,0.5812,0.58,0.5773,0.5748,0.5744,0.5728,0.5696,0.5691,0.5719,0.5664,0.5654,0.5607,0.5585,0.5619,0.5616,0.5481,0.5479,0.5477,0.5467,0,0,0,0,0,0,0.5879,0.5865,0.5847,0.5812,0.5798,0.5732,0.5747,0.5742,0.5721,0.5722,0.5683,0.5678,0.5664,0.5613,0.5603,0.558,0.5613,0.5483,0.548,0.5478,0.5469,0.5465,0.5461,0,0,0,0,0,0.5883,0.5846,0.5846,0.5835,0.5775,0.573,0.5722,0.5708,0.5719,0.57,0.568,0.5679,0.559,0.5609,0.5597,0.5573,0.5484,0.5481,0.5478,0.5471,0.5465,0.5461,0,0,0,0,0,0,0.5878,0.5841,0.5841,0.5791,0.5764,0.573,0.5705,0.5703,0.5671,0.5673,0.5656,0.5647,0.56,0.5582,0.5603,0.5523,0.5538,0.5533,0.5537,0.5531,0.5527,0.5532,0.5609,0,0,0,0,0,0.5871,0.5839,0.5809,0.5768,0.5755,0.5733,0.5713,0.5705,0.5675,0.5663,0.564,0.561,0.5576,0.5553,0.5519,0.5467,0.5458,0.5445,0.5441,0.5438,0.5433,0.5403,0.5396,0.5466,0.5467,0.5467,0,0,0.5856,0.5833,0.5813,0.5766,0.5744,0.5711,0.5723,0.5687,0.5661,0.5657,0.5611,0.5593,0.5559,0.5509,0.5486,0.5493,0.5412,0.5434,0.5432,0.5428,0.5399,0.5393,0.5387,0.5464,0.5465,0.5465,0,0,0.5812,0.5792,0.5755,0.5733,0.5701,0.5686,0.5678,0.5644,0.5632,0.5586,0.5583,0.5552,0.5493,0.5469,0.5449,0.5397,0.5395,0.5387,0.5365,0.5337,0.5331,0.5326,0.5306,0.5299,0.5382,0.5382,0.5382,0,0.5797,0.5747,0.5736,0.57,0.5679,0.5677,0.5639,0.5618,0.5575,0.5561,0.5569,0.5495,0.5472,0.5417,0.5404,0.5389,0.5377,0.539,0.5333,0.5328,0.5323,0.5304,0.5296,0.5381,0.5381,0.5382,0.5382,0,0.573,0.5696,0.5671,0.5631,0.5607,0.5571,0.5553,0.5531,0.5525,0.551,0.5463,0.5436,0.5396,0.5383,0.5377,0.5326,0.5331,0.5337,0.5351,0.5316,0.5297,0.529,0.538,0.538,0.5381,0.5381,0,0,0.5678,0.5634,0.5625,0.5607,0.5571,0.5544,0.5508,0.5471,0.5451,0.5423,0.539,0.5341,0.5347,0.5324,0.5315,0.529,0.525,0.5299,0.5298,0.5289,0.5191,0.5186,0.5177,0.525,0.5248,0.5247,0.5193,0,0.5628,0.5564,0.5553,0.5496,0.5464,0.5462,0.543,0.5404,0.5389,0.5359,0.5342,0.5307,0.5318,0.5304,0.528,0.526,0.523,0.5264,0.5217,0.5216,0.5224,0.5168,0.5162,0.5112,0.5186,0.5185,0.5184,0,0.5561,0.5532,0.5472,0.5441,0.5427,0.5399,0.5364,0.5336,0.5307,0.5298,0.5274,0.5268,0.5229,0.5248,0.5193,0.5217,0.5197,0.5185,0.5183,0.5176,0.5196,0.5157,0.5096,0.5088,0.5173,0.5174,0.5175,0,0.5526,0.5473,0.543,0.5415,0.5378,0.5358,0.5342,0.5314,0.5293,0.5263,0.5248,0.5214,0.5194,0.5167,0.5152,0.5167,0.5098,0.5116,0.5088,0.5089,0.5071,0.5072,0.5004,0.5063,0.5063,0.5063,0.5064,0,0.547,0.5433,0.5414,0.5387,0.5345,0.5334,0.5293,0.5277,0.5253,0.5222,0.5219,0.519,0.5173,0.5142,0.513,0.5086,0.5078,0.5068,0.5065,0.5067,0.5068,0.5052,0.5054,0.5061,0.5062,0.5062,0.5063,0,0.5424,0.5409,0.5362,0.5333,0.5324,0.5295,0.5269,0.5242,0.5229,0.519,0.5181,0.5159,0.5122,0.5105,0.5059,0.5051,0.5,0.5001,0.501,0.5009,0.4981,0.4983,0.4899,0.4887,0.4956,0.4955,0.4955,0,0.5388,0.5359,0.5327,0.5307,0.5291,0.5258,0.5237,0.5225,0.5203,0.5169,0.5146,0.5109,0.5079,0.502,0.4999,0.4964,0.4962,0.4935,0.4957,0.496,0.4959,0.496,0.4957,0.493,0.493,0.4929,0.4929,0,0.5325,0.5319,0.5289,0.5257,0.5232,0.5205,0.5179,0.5163,0.5147,0.5122,0.5085,0.5062,0.5016,0.4979,0.4943,0.4925,0.4923,0.4923,0.4914,0.4914,0.492,0.4915,0.4997,0.4924,0.4924,0.4925,0.4925,0.4925,0.5281,0.5255,0.5229,0.5195,0.5175,0.5151,0.5125,0.5109,0.5078,0.504,0.5036,0.4996,0.4968,0.492,0.4901,0.4869,0.4875,0.4863,0.486,0.4856,0.4854,0.4928,0.4862,0.4863,0.4863,0.4863,0.4863,0,0.5216,0.5199,0.5169,0.5133,0.5107,0.5111,0.5082,0.506,0.5025,0.5,0.4971,0.4928,0.4893,0.487,0.4835,0.4813,0.4812,0.4804,0.4804,0.48,0.4851,0.4861,0.4806,0.4806,0.4806,0.4806,0.4806,0.4806,0.5179,0.5135,0.5127,0.5074,0.5058,0.5019,0.5003,0.498,0.496,0.4913,0.4884,0.4871,0.4846,0.4809,0.4777,0.4771,0.4757,0.4749,0.4743,0.479,0.4796,0.4802,0.4811,0.4746,0.4746,0.4694,0.4694,0.4693]},{"header":{"parameterUnit":"m.s-1","parameterCategory":1,"la1":30.2991,"la2":30.254,"lo1":-89.0895,"lo2":-89.0444,"dx":0.0017,"dy":0.0017,"nx":28,"ny":28,"refTime":"2022-12-23T15:00:00:Z","depth":0,"parameterNumber":3,"parameterNumberName":"V-component_of_WINDS"},"data":[0,0,0,0,0,0,0,0,0,0,0,0,0,0,0,0,0,0,0,0,0,0,0,0,0,0,0,0,0,0,0,0,0,0,0,0,0,0,0,0,0,0,0,0,0,0,0,0,0,0,0,0,0,0,0,0,0,0,-6.2361,-6.2363,0,-6.2555,-6.2557,-6.256,-6.2482,-6.2477,-6.2473,-6.2469,-6.2663,-6.2672,-6.2681,0,0,0,0,0,0,0,0,0,0,0,0,0,-6.1916,-6.1924,-6.236,-6.2363,-6.2365,-6.2555,-6.2558,-6.256,-6.2483,-6.2477,-6.2472,-6.2466,-6.266,-6.2671,-6.2682,0,0,0,0,0,0,0,0,0,0,0,0,0,-6.211,-6.1927,-6.236,-6.235,-6.2351,-6.2554,-6.2558,-6.2561,-6.2484,-6.2477,-6.247,-6.2464,-6.2656,-6.267,-6.2684,-6.2907,0,0,-6.2727,-6.2733,0,0,0,0,0,0,0,0,-6.2099,-6.2126,-6.2349,-6.2351,-6.2352,-6.2487,-6.2472,-6.2677,-6.2486,-6.2433,-6.2468,-6.2461,-6.261,-6.2627,-6.2678,-6.2916,-6.2925,-6.2728,-6.2737,-6.2743,-6.2747,0,0,0,0,0,0,0,-6.2085,-6.2117,-6.2437,-6.2352,-6.2354,-6.2333,-6.2353,-6.251,-6.2557,-6.2437,-6.2432,-6.2456,-6.2609,-6.2665,-6.2682,-6.2928,-6.2728,-6.274,-6.2749,-6.2754,-6.3358,-6.3365,0,0,0,0,0,0,-6.2072,-6.2106,-6.2431,-6.2443,-6.2206,-6.2347,-6.2369,-6.2451,-6.2555,-6.2565,-6.2462,-6.2452,-6.2644,-6.2666,-6.2689,-6.2958,-6.2742,-6.2756,-6.2764,-6.335,-6.3359,-6.3367,0,0,0,0,0,0,-6.2063,-6.2102,-6.2423,-6.2274,-6.2313,-6.2362,-6.2454,-6.2458,-6.2514,-6.2574,-6.2581,-6.2511,-6.264,-6.2669,-6.2854,-6.2963,-6.2762,-6.2775,-6.3341,-6.3353,-6.3363,-6.3497,0,0,0,0,0,0,-6.2051,-6.2099,-6.2186,-6.2276,-6.2321,-6.2587,-6.2461,-6.2467,-6.2539,-6.2528,-6.2622,-6.2631,-6.2637,-6.2833,-6.2868,-6.2979,-6.2786,-6.3332,-6.3346,-6.336,-6.3483,-6.3512,-6.3536,0,0,0,0,0,-6.2035,-6.2215,-6.2191,-6.2231,-6.2431,-6.2594,-6.2619,-6.2624,-6.2549,-6.2636,-6.2674,-6.2628,-6.2945,-6.2853,-6.2891,-6.3008,-6.3325,-6.3342,-6.3359,-6.3471,-6.3506,-6.3536,0,0,0,0,0,0,-6.2135,-6.2227,-6.2201,-6.2416,-6.2498,-6.258,-6.269,-6.266,-6.2764,-6.2749,-6.2748,-6.277,-6.2961,-6.3002,-6.2898,-6.323,-6.3123,-6.3149,-6.3196,-6.323,-6.3255,-6.3242,-6.2798,0,0,0,0,0,-6.2183,-6.2309,-6.2381,-6.2564,-6.2606,-6.2642,-6.2712,-6.2709,-6.2793,-6.2826,-6.2878,-6.296,-6.3078,-6.3156,-6.3267,-6.3488,-6.3507,-6.3588,-6.3614,-6.3635,-6.3658,-6.3777,-6.3813,-6.3423,-6.3423,-6.3423,0,0,-6.2281,-6.2347,-6.2426,-6.2585,-6.2648,-6.2777,-6.2671,-6.2812,-6.2907,-6.2847,-6.3026,-6.3066,-6.3157,-6.3361,-6.3453,-6.3401,-6.3769,-6.3657,-6.3674,-6.3685,-6.3798,-6.3835,-6.3868,-6.3435,-6.3433,-6.3431,0,0,-6.2528,-6.259,-6.2749,-6.2815,-6.2912,-6.2934,-6.2972,-6.306,-6.3085,-6.3264,-6.3222,-6.3333,-6.3537,-6.3603,-6.3664,-6.3934,-6.3895,-6.397,-6.4108,-6.4225,-6.4255,-6.4282,-6.4379,-6.4413,-6.3992,-6.3992,-6.3992,0,-6.2638,-6.2832,-6.2834,-6.298,-6.305,-6.3003,-6.3163,-6.3225,-6.3354,-6.3403,-6.3343,-6.3598,-6.3655,-6.3874,-6.394,-6.399,-6.4033,-6.396,-6.4251,-6.4278,-6.4304,-6.4396,-6.4432,-6.4001,-6.4,-6.3999,-6.3998,0,-6.2963,-6.3098,-6.3215,-6.3342,-6.3425,-6.3577,-6.36,-6.3684,-6.3672,-6.37,-6.3882,-6.395,-6.4074,-6.4125,-6.4115,-6.4343,-6.4307,-6.425,-6.4143,-6.4349,-6.4436,-6.4471,-6.4013,-6.401,-6.4007,-6.4005,0,0,-6.3279,-6.3405,-6.3448,-6.3505,-6.3608,-6.3711,-6.386,-6.3983,-6.4055,-6.4144,-6.4268,-6.4441,-6.4388,-6.4457,-6.4453,-6.4555,-6.4764,-6.4484,-6.4486,-6.4534,-6.5018,-6.5062,-6.5103,-6.4739,-6.4745,-6.4751,-6.5011,0,-6.3534,-6.3797,-6.3803,-6.4043,-6.4167,-6.4123,-6.4252,-6.4329,-6.4358,-6.4466,-6.4497,-6.462,-6.4541,-6.4582,-6.4681,-6.4718,-6.4862,-6.4699,-6.4853,-6.4858,-6.4833,-6.5148,-6.5195,-6.5437,-6.5045,-6.505,-6.5054,0,-6.3867,-6.3968,-6.4222,-6.4307,-6.4359,-6.4475,-6.4589,-6.4693,-6.4777,-6.4791,-6.4868,-6.4849,-6.4998,-6.4886,-6.5091,-6.4981,-6.5043,-6.507,-6.508,-6.5095,-6.497,-6.5172,-6.5514,-6.5551,-6.5107,-6.5103,-6.5099,0,-6.4072,-6.4272,-6.445,-6.45,-6.4603,-6.4686,-6.4732,-6.481,-6.4884,-6.4981,-6.5029,-6.5142,-6.5205,-6.5292,-6.5303,-6.522,-6.5509,-6.5398,-6.5524,-6.5524,-6.5587,-6.5583,-6.5945,-6.5627,-6.5626,-6.5625,-6.5625,0,-6.4357,-6.4514,-6.4544,-6.4653,-6.4827,-6.483,-6.5002,-6.5041,-6.511,-6.5225,-6.5193,-6.53,-6.5308,-6.5418,-6.5427,-6.5596,-6.5624,-6.5638,-6.5639,-6.5642,-6.564,-6.5684,-6.5667,-6.5635,-6.5633,-6.5631,-6.5629,0,-6.4617,-6.4644,-6.4834,-6.4916,-6.494,-6.5065,-6.5134,-6.5237,-6.5263,-6.5408,-6.5443,-6.5483,-6.5611,-6.563,-6.5779,-6.5785,-6.5987,-6.597,-6.596,-6.5958,-6.6083,-6.6071,-6.6486,-6.654,-6.6185,-6.6189,-6.6192,0,-6.4797,-6.4917,-6.5012,-6.5088,-6.5139,-6.5261,-6.5336,-6.5343,-6.5422,-6.5527,-6.5618,-6.5742,-6.5843,-6.6049,-6.609,-6.6204,-6.6189,-6.6327,-6.6206,-6.6205,-6.6192,-6.6185,-6.6197,-6.635,-6.6354,-6.6357,-6.636,0,-6.5114,-6.5122,-6.5232,-6.5348,-6.5439,-6.553,-6.5616,-6.5679,-6.5696,-6.5787,-6.5918,-6.5997,-6.615,-6.6274,-6.6386,-6.6431,-6.6399,-6.6397,-6.6432,-6.6437,-6.6427,-6.6435,-6.6024,-6.6388,-6.6385,-6.6383,-6.6382,-6.638,-6.5341,-6.5445,-6.5529,-6.5653,-6.5718,-6.5799,-6.59,-6.5939,-6.6049,-6.6176,-6.6172,-6.6316,-6.6396,-6.6544,-6.6597,-6.6708,-6.6663,-6.6714,-6.6727,-6.674,-6.6753,-6.6408,-6.6728,-6.6728,-6.6727,-6.6726,-6.6726,0,-6.5657,-6.5708,-6.5822,-6.5944,-6.6041,-6.6003,-6.6095,-6.6179,-6.6307,-6.6385,-6.6485,-6.6635,-6.6755,-6.6805,-6.6922,-6.7002,-6.699,-6.7032,-6.7027,-6.7038,-6.6786,-6.6744,-6.704,-6.704,-6.704,-6.704,-6.704,-6.704,-6.5833,-6.6007,-6.6024,-6.623,-6.6279,-6.6422,-6.6478,-6.6552,-6.6614,-6.6784,-6.6884,-6.6917,-6.6983,-6.7105,-6.7212,-6.7223,-6.7268,-6.7318,-6.7323,-6.7087,-6.7055,-6.7025,-6.6986,-6.7327,-6.7328,-6.7565,-6.7567,-6.7569]}]]